Hickory, NC

1:22 AM EDT on March 27, 2017 (GMT -0400)
Hickory Regional

Weather History for KHKY - April, 2014

Change the Weather History Date:

Wednesday, April 9, 2014

  Actual Average Record
Temperature  
Mean Temperature 55 °F -  
Max Temperature 66 °F 66 °F 86 °F (2001)
Min Temperature 46 °F 43 °F 20 °F (1972)
Degree Days  
Heating Degree Days 10    
Growing Degree Days 5 (Base 50)    
Moisture  
Dew Point 34 °F    
Average Humidity 47    
Maximum Humidity 71    
Minimum Humidity 22    
Precipitation  
Precipitation 0.00 in - - ()
Sea Level Pressure  
Sea Level Pressure 29.89 in    
Wind  
Wind Speed 6 mph (WNW)    
Max Wind Speed 14 mph    
Max Gust Speed 21 mph    
Visibility 10 miles    
Events      
Averages and records for this station are not official NWS values.
T = Trace of Precipitation, MM = Missing Value Source: NWS Daily Summary

Daily Weather History Graph

Daily Weather History Graph

Search for Another Location

Airport or City:

Trip Planner

Search our weather history database for the weather conditions in past years. The results will help you decide how hot, cold, wet, or windy it might be!

Date:

Astronomy

Apr. 09, 2014 Rise Set
Actual Time 7:00 AM EDT 7:53 PM EDT
Civil Twilight 6:34 AM EDT 8:19 PM EDT
Nautical Twilight 6:04 AM EDT 8:50 PM EDT
Astronomical Twilight 5:32 AM EDT 9:22 PM EDT
Moon 2:50 PM EDT (4/9) 3:38 AM EDT (4/9)
Length of Visible Light 13h 45m
Length of Day
12h 53m
Waxing Gibbous, 71% of the Moon is Illuminated
Apr 9
Waxing Gibbous
Apr 15
Full
Apr 22
Last Quarter
Apr 29
New
May 6
First Quarter

Hourly Weather History & Observations

Time (EDT) Temp. Windchill Dew Point Humidity Pressure Visibility Wind Dir Wind Speed Gust Speed Precip Events Conditions
12:53 AM 50.0 °F - 37.0 °F 61% 29.71 in 10.0 mi WNW 5.8 mph - N/A   Partly Cloudy
1:53 AM 48.0 °F - 37.9 °F 68% 29.72 in 10.0 mi West 4.6 mph - N/A   Overcast
2:53 AM 48.9 °F - 37.0 °F 64% 29.71 in 10.0 mi West 3.5 mph - N/A   Overcast
3:53 AM 48.9 °F - 37.0 °F 64% 29.71 in 10.0 mi West 4.6 mph - N/A   Overcast
4:53 AM 50.0 °F - 37.0 °F 61% 29.72 in 10.0 mi WNW 3.5 mph - N/A   Overcast
5:53 AM 48.9 °F - 37.0 °F 64% 29.76 in 10.0 mi WNW 5.8 mph - N/A   Overcast
6:53 AM 46.0 °F 43.1 °F 37.0 °F 71% 29.79 in 10.0 mi WNW 5.8 mph - N/A   Clear
7:53 AM 48.9 °F - 37.0 °F 64% 29.83 in 10.0 mi WNW 4.6 mph - N/A   Clear
8:53 AM 53.1 °F - 39.9 °F 61% 29.86 in 10.0 mi NW 4.6 mph - N/A   Mostly Cloudy
9:53 AM 57.9 °F - 36.0 °F 44% 29.88 in 10.0 mi NW 12.7 mph 19.6 mph N/A   Scattered Clouds
10:53 AM 57.0 °F - 37.0 °F 47% 29.91 in 10.0 mi NW 10.4 mph - N/A   Partly Cloudy
11:53 AM 60.1 °F - 39.9 °F 47% 29.93 in 10.0 mi NW 12.7 mph 18.4 mph N/A   Mostly Cloudy
12:53 PM 59.0 °F - 39.9 °F 49% 29.94 in 10.0 mi NW 13.8 mph - N/A   Mostly Cloudy
1:53 PM 61.0 °F - 37.0 °F 41% 29.93 in 10.0 mi West 9.2 mph - N/A   Mostly Cloudy
2:53 PM 63.0 °F - 35.1 °F 35% 29.94 in 10.0 mi NNW 10.4 mph 16.1 mph N/A   Mostly Cloudy
3:53 PM 64.0 °F - 36.0 °F 35% 29.93 in 10.0 mi SW 8.1 mph - N/A   Partly Cloudy
4:53 PM 64.0 °F - 28.0 °F 26% 29.93 in 10.0 mi WNW 11.5 mph 20.7 mph N/A   Partly Cloudy
5:53 PM 64.9 °F - 26.1 °F 23% 29.94 in 10.0 mi WNW 12.7 mph - N/A   Clear
6:53 PM 63.0 °F - 23.0 °F 22% 29.96 in 10.0 mi NW 10.4 mph - N/A   Clear
7:53 PM 60.1 °F - 27.0 °F 28% 29.99 in 10.0 mi WNW 4.6 mph - N/A   Clear
8:53 PM 57.9 °F - 28.0 °F 32% 30.02 in 10.0 mi Calm Calm - N/A   Clear
9:53 PM 54.0 °F - 28.0 °F 37% 30.06 in 10.0 mi West 4.6 mph - N/A   Clear
10:53 PM 53.1 °F - 27.0 °F 37% 30.07 in 10.0 mi Calm Calm - N/A   Clear
11:53 PM 53.1 °F - 27.0 °F 37% 30.08 in 10.0 mi WNW 3.5 mph - N/A   Clear